Weather History for Sedalia, MO

Change the Weather History Date:

Wednesday, October 2, 2013

  Actual Average Record
Temperature  
Mean Temperature 74 °F 63 °F  
Max Temperature 84 °F 73 °F 93 °F (1953)
Min Temperature 64 °F 52 °F 29 °F (1984)
Degree Days  
Heating Degree Days 0 5  
Month to date heating degree days 0 9  
Since 1 July heating degree days 19 54  
Cooling Degree Days 9 2  
Month to date cooling degree days 17 4  
Year to date cooling degree days 1454 1454  
Growing Degree Days 24 (Base 50)    
Moisture  
Dew Point 66 °F    
Average Humidity 77    
Maximum Humidity 93    
Minimum Humidity 61    
Precipitation  
Precipitation T in 0.13 in 2.12 in (1941)
Month to date precipitation T 0.27  
Year to date precipitation 33.47 32.32  
Sea Level Pressure  
Sea Level Pressure 29.97 in    
Wind  
Wind Speed 6 mph (South)    
Max Wind Speed 16 mph    
Max Gust Speed 18 mph    
Visibility 10 miles    
Events Thunderstorm    
T = Trace of Precipitation, MM = Missing Value Source: NWS Daily Summary

Daily Weather History Graph

Daily Weather History Graph

Search for Another Location

Airport:

Trip Planner

Search our weather history database for the weather conditions in past years. The results will help you decide how hot, cold, wet, or windy it might be!

Date:

Astronomy

Oct. 02, 2013 Rise Set
Actual Time 7:09 AM CDT 6:53 PM CDT
Civil Twilight 6:43 AM CDT 7:19 PM CDT
Nautical Twilight 6:12 AM CDT 7:50 PM CDT
Astronomical Twilight 5:41 AM CDT 8:21 PM CDT
Moon 4:44 AM CDT (10/2) 5:28 PM CDT (10/2)
Length of Visible Light 12h 36m
Length of Day
11h 43m
Waning Crescent, 6% of the Moon is Illuminated
Oct 2
Waning Crescent
Oct 4
New
Oct 11
First Quarter
Oct 18
Full
Oct 26
Last Quarter

Hourly Weather History & Observations

Time (CDT) Temp. Heat Index Dew Point Humidity Pressure Visibility Wind Dir Wind Speed Gust Speed Precip Events Conditions
12:53 AM 66.0 °F - 61.0 °F 84% 29.98 in 10.0 mi South 3.5 mph - N/A   Clear
1:53 AM 66.0 °F - 61.0 °F 84% 29.99 in 10.0 mi Calm Calm - N/A   Mostly Cloudy
2:53 AM 64.9 °F - 61.0 °F 87% 29.99 in 10.0 mi South 5.8 mph - N/A   Mostly Cloudy
3:53 AM 66.0 °F - 62.1 °F 87% 29.99 in 10.0 mi South 5.8 mph - N/A   Scattered Clouds
4:53 AM 64.9 °F - 62.1 °F 90% 29.99 in 10.0 mi South 5.8 mph - N/A   Clear
5:53 AM 64.9 °F - 62.1 °F 90% 30.01 in 10.0 mi South 4.6 mph - N/A   Clear
6:53 AM 64.0 °F - 62.1 °F 93% 30.02 in 9.0 mi SSE 3.5 mph - N/A   Clear
7:53 AM 64.9 °F - 63.0 °F 93% 30.03 in 7.0 mi SSE 4.6 mph - N/A   Partly Cloudy
8:53 AM 70.0 °F - 66.9 °F 90% 30.04 in 9.0 mi South 5.8 mph - N/A   Mostly Cloudy
9:53 AM 73.0 °F - 69.1 °F 87% 30.04 in 10.0 mi South 6.9 mph - N/A   Overcast
10:53 AM 78.1 °F - 70.0 °F 76% 30.03 in 10.0 mi SSW 6.9 mph - N/A   Clear
11:53 AM 81.0 °F 84.9 °F 71.1 °F 72% 30.01 in 10.0 mi Variable 4.6 mph - N/A   Mostly Cloudy
12:46 PM 80.6 °F 83.9 °F 69.8 °F 70% 30.02 in 10.0 mi South 6.9 mph - N/A   Mostly Cloudy
12:53 PM 81.0 °F 84.1 °F 69.1 °F 67% 29.99 in 10.0 mi SE 6.9 mph - N/A   Mostly Cloudy
1:53 PM 84.0 °F 88.4 °F 70.0 °F 63% 29.96 in 10.0 mi South 8.1 mph - N/A   Scattered Clouds
2:53 PM 82.9 °F 85.8 °F 68.0 °F 60% 29.94 in 10.0 mi NW 8.1 mph - N/A Thunderstorm Scattered Clouds
3:24 PM 82.4 °F 84.6 °F 66.2 °F 58% 29.95 in 10.0 mi Variable 3.5 mph - N/A   Partly Cloudy
3:53 PM 82.9 °F 85.4 °F 66.9 °F 58% 29.91 in 10.0 mi Calm Calm - N/A   Partly Cloudy
4:53 PM 78.1 °F - 69.1 °F 74% 29.92 in 10.0 mi South 12.7 mph - 0.00 in   Clear
5:53 PM 75.0 °F - 66.0 °F 73% 29.94 in 10.0 mi SSE 6.9 mph - N/A   Scattered Clouds
6:53 PM 73.9 °F - 66.9 °F 79% 29.92 in 10.0 mi SSE 6.9 mph - N/A   Partly Cloudy
7:53 PM 73.0 °F - 68.0 °F 84% 29.92 in 10.0 mi SSE 8.1 mph - N/A   Mostly Cloudy
8:53 PM 71.1 °F - 68.0 °F 90% 29.93 in 10.0 mi SSE 6.9 mph - N/A   Clear
9:53 PM 71.1 °F - 68.0 °F 90% 29.93 in 10.0 mi SSE 9.2 mph - N/A   Clear
10:53 PM 72.0 °F - 68.0 °F 87% 29.92 in 10.0 mi South 9.2 mph - N/A   Clear
11:53 PM 71.1 °F - 68.0 °F 90% 29.92 in 10.0 mi South 9.2 mph - N/A   Clear